Location: Unspecified
(0.0000°N, 0.0000°E)
Time: 01:34:43
(UTC+00:00)

Courier 1B - All Passes

Search period start: 23 August 2014 00:00
Search period end: 02 September 2014 00:00
Orbit: 963 x 1209 km, 28.3° (Epoch: 21 August)

Date Brightness Start Highest point End Pass type
(mag) Time Alt. Az. Time Alt. Az. Time Alt. Az.
23 Aug - 04:26:11 10° SSW 04:31:57 22° SSE 04:37:34 10° ESE visible
23 Aug - 06:19:05 10° SW 06:26:45 67° SSE 06:33:59 10° ENE daylight
23 Aug - 08:14:17 10° W 08:21:03 37° NNW 08:27:28 10° NE daylight
23 Aug - 10:14:11 10° NW 10:15:53 11° NNW 10:17:34 10° N daylight
23 Aug - 16:00:58 10° N 16:04:26 15° NNE 16:07:57 10° ENE daylight
23 Aug - 17:52:28 10° NW 17:58:50 53° NNE 18:05:33 10° ESE daylight
23 Aug - 19:46:38 10° W 19:53:00 43° SSW 19:59:47 10° SE visible
23 Aug - 21:44:21 10° SW 21:47:58 14° SSW 21:51:42 10° S visible
24 Aug - 03:32:59 10° SSW 03:37:44 17° SSE 03:42:26 10° ESE visible
24 Aug - 05:25:18 10° SW 05:32:48 49° SSE 05:39:58 10° ENE visible
24 Aug - 07:19:48 10° WSW 07:27:11 52° NNW 07:34:08 10° NE daylight
24 Aug - 09:17:43 10° WNW 09:21:48 16° NNW 09:25:45 10° N daylight
24 Aug - 15:09:27 10° NNE 15:10:26 10° NNE 15:11:25 10° NNE daylight
24 Aug - 16:59:10 10° NW 17:05:06 37° NNE 17:11:15 10° E daylight
24 Aug - 18:52:40 10° WNW 18:59:11 60° SSW 19:06:06 10° SE visible
24 Aug - 20:49:12 10° WSW 20:53:50 19° SSW 20:58:39 10° SSE visible
25 Aug - 02:40:11 10° S 02:43:26 13° SSE 02:46:41 10° SE visible
25 Aug - 04:31:40 10° SW 04:38:47 37° SSE 04:45:41 10° E visible
25 Aug - 06:25:33 10° WSW 06:33:17 72° NNW 06:40:37 10° NE daylight
25 Aug - 08:22:17 10° WNW 08:27:47 22° NNW 08:33:03 10° NNE daylight
25 Aug - 16:06:02 10° NNW 16:11:20 27° NNE 16:16:44 10° E daylight
25 Aug - 17:58:54 10° WNW 18:05:26 83° SSW 18:12:19 10° ESE daylight
25 Aug - 19:54:29 10° WSW 19:59:48 24° SSW 20:05:23 10° SSE visible
26 Aug - 03:38:12 10° SSW 03:44:42 28° SSE 03:51:06 10° E visible
26 Aug - 05:31:29 10° WSW 05:39:22 85° SSE 05:46:54 10° ENE visible
26 Aug - 07:27:18 10° W 07:33:48 30° NNW 07:40:00 10° NNE daylight
26 Aug - 15:13:04 10° NNW 15:17:30 19° NNE 15:21:56 10° ENE daylight
26 Aug - 17:05:18 10° NW 17:11:44 70° NNE 17:18:25 10° ESE daylight
26 Aug - 19:00:04 10° W 19:05:54 32° SSW 19:12:00 10° SE visible
26 Aug - 20:59:44 10° SSW 21:01:02 11° SSW 21:02:22 10° S visible
27 Aug - 02:44:54 10° SSW 02:50:33 21° SSE 02:56:11 10° ESE visible
27 Aug - 04:37:37 10° SW 04:45:24 64° SSE 04:52:58 10° ENE visible
27 Aug - 06:32:38 10° W 06:39:50 41° NNW 06:46:44 10° NE daylight
27 Aug - 08:31:39 10° NW 08:34:45 13° NNW 08:37:48 10° N daylight
27 Aug - 14:20:26 10° N 14:23:34 14° NNE 14:26:40 10° NE daylight
27 Aug - 16:11:50 10° NW 16:18:02 49° NNE 16:24:21 10° ESE daylight
27 Aug - 18:05:55 10° W 18:12:05 45° SSW 18:18:31 10° SE daylight
27 Aug - 20:03:35 10° SW 20:06:51 14° SSW 20:10:14 10° S visible
28 Aug - 01:51:53 10° SSW 01:56:20 16° SSE 02:00:48 10° ESE visible
28 Aug - 03:43:55 10° SW 03:51:24 47° SSE 03:58:48 10° E visible
28 Aug - 05:38:13 10° WSW 05:45:53 57° NNW 05:53:17 10° NE visible
28 Aug - 07:35:45 10° WNW 07:40:37 18° NNW 07:45:21 10° NNE daylight
28 Aug - 15:18:30 10° NW 15:24:19 35° NNE 15:30:08 10° E daylight
28 Aug - 17:11:58 10° WNW 17:18:20 63° SSW 17:24:56 10° SE daylight
28 Aug - 19:08:26 10° WSW 19:12:48 18° SSW 19:17:19 10° SSE visible
29 Aug - 00:59:26 10° S 01:02:02 12° SSE 01:04:40 10° SE night (unlit)
29 Aug - 02:50:23 10° SW 02:57:22 35° SSE 03:04:21 10° E visible
29 Aug - 04:44:03 10° WSW 04:51:55 77° NNW 04:59:37 10° NE visible
29 Aug - 06:40:29 10° WNW 06:46:32 25° NNW 06:52:24 10° NNE daylight
29 Aug - 14:25:19 10° NNW 14:30:31 25° NNE 14:35:40 10° E daylight
29 Aug - 16:18:11 10° WNW 16:24:39 88° SSW 16:31:14 10° ESE daylight
29 Aug - 18:13:43 10° W 18:18:52 24° SSW 18:24:11 10° SSE visible
30 Aug - 01:57:03 10° SSW 02:03:17 26° SSE 02:09:36 10° E visible
30 Aug - 03:50:05 10° SW 03:57:57 80° SSE 04:05:46 10° ENE visible
30 Aug - 05:45:36 10° W 05:52:29 33° NNW 05:59:11 10° NNE daylight
30 Aug - 07:46:14 10° NNW 07:47:45 11° NNW 07:49:15 10° N daylight
30 Aug - 13:32:16 10° NNW 13:36:38 18° NNE 13:40:56 10° ENE daylight
30 Aug - 15:24:32 10° NW 15:30:58 66° NNE 15:37:24 10° ESE daylight
30 Aug - 17:19:18 10° W 17:25:02 33° SSW 17:30:55 10° SE daylight
30 Aug - 19:19:46 10° SSW 19:19:59 10° SSW 19:20:11 10° SSW visible
31 Aug - 01:03:56 10° SSW 01:09:09 20° SSE 01:14:29 10° ESE night (unlit)
31 Aug - 02:56:19 10° SW 03:03:58 60° SSE 03:11:41 10° ENE visible
31 Aug - 04:51:03 10° W 04:58:28 45° NNW 05:05:46 10° NE visible
31 Aug - 06:49:28 10° NW 06:53:29 15° NNW 06:57:26 10° N daylight
31 Aug - 12:39:31 10° N 12:42:39 14° NNE 12:45:44 10° NE daylight
31 Aug - 14:31:01 10° NW 14:37:16 46° NNE 14:43:25 10° ESE daylight
31 Aug - 16:25:07 10° WNW 16:31:17 47° SSW 16:37:31 10° SE daylight
31 Aug - 18:22:47 10° SW 18:25:53 14° SSW 18:29:01 10° S visible
01 Sep - 00:11:11 10° S 00:14:58 14° SSE 00:18:50 10° SE night (unlit)
01 Sep - 02:02:45 10° SW 02:09:59 44° SSE 02:17:22 10° E visible
01 Sep - 03:56:46 10° WSW 04:04:28 61° NNW 04:12:10 10° NE visible
01 Sep - 05:53:53 10° WNW 05:59:17 20° NNW 06:04:37 10° NNE daylight
01 Sep - 11:48:11 10° NNE 11:48:32 10° NNE 11:48:53 10° NNE daylight
01 Sep - 13:37:37 10° NW 13:43:31 33° NNE 13:49:15 10° E daylight
01 Sep - 15:31:07 10° WNW 15:37:35 67° SSW 15:44:01 10° SE daylight
01 Sep - 17:27:35 10° WSW 17:31:54 18° SSW 17:36:17 10° SSE daylight
01 Sep - 23:19:45 10° SSE 23:20:43 10° SSE 23:21:42 10° SSE night (unlit)
